EGMD

Details ICAO EGMD (LYX)
Name Lydd
Region United Kingdom
Timezone Europe/London (UTC+1.0)
Plans Departing 95
Arriving 95
Stats Elevation 13 ft / 4 m (AMSL)
Location 50.956171° 0.939147°
Runways 1
Magnetic Variation 0.035° E
Sunrise 2018-05-27 03:53:30 UTC / 2018-05-27 04:53:30 Local
Sunset 2018-05-27 19:56:11 UTC / 2018-05-27 20:56:11 Local
Advertisement - Login to hide

Runways

ID Width Length Bearing (true) Bearing (mag) Surface Threshold Offset Overrun Length
03 105 ft / 32 m 4,928 ft / 1,502 m 32.64° 32.60° Asphalt 0 ft / 0 m 0 ft / 0 m
21 105 ft / 32 m 4,928 ft / 1,502 m 212.65° 212.61° Asphalt 112 ft / 34 m 0 ft / 0 m

Approach Navaids

Runway Type Ident Frequency Range Bearing (true) Bearing (mag) Slope Elevation
21 Localiser ILDY 108.15 MHz 18 nm / 33 km 203.16° 203.12° - 13 ft / 4 m (AMSL)
21 Glidescope ILDY 108.15 MHz 10 nm / 19 km 212.65° 212.61° 3.50° 13 ft / 4 m (AMSL)

Map

Weather


0- 5 10 15 20 25 30 35+ Temperature / ° C

Clouds and Precipitation
Forecast for 2018-05-27 18:00 UTC. Updated 5 hours ago

Ground ~20,000 ft ~40,000 ft Winds

METAR

EGMD 272220Z AUTO 34003KT 9999 NCD 16/14 Q1016

TAF

Not found

Frequencies

Recorded 129.23 MHz Lydd Information
Approach 120.70 MHz Lydd Approach
Tower 128.53 MHz Lydd Tower
Warning: Do not use this data for real-world aviation or navigation. No guarantee of current accuracy is given.